Regional Weather Roundup
Issued by NWS

Home | Current Version | Previous Version | Graphics & Text | Print | Product List | Glossary On
Versions: 1 2 3 4 5 6 7 8 9 10 11 12 13 14 15 16 17 18 19 20 21 22 23 24 25 26 27 28 29 30 31 32 33 34 35 36 37 38 39 40 41 42 43 44 45 46 47 48 49 50
000
ASUS43 KMPX 300701
RWRMN
WEATHER ROUNDUP FOR MINNESOTA
NATIONAL WEATHER SERVICE TWIN CITIES/CHANHASSEN MN
200 AM CDT THU JUL 30 2015


NOTE: "FAIR" INDICATES FEW OR NO CLOUDS BELOW 12,000 FEET WITH NO
SIGNIFICANT WEATHER AND/OR OBSTRUCTIONS TO VISIBILITY. N/A MEANS
CURRENT SKY AND/OR WEATHER CONDITIONS ARE NOT AVAILABLE.

MNZ060>063-068>070-300800-
   Twin Cities Metro

CITY           SKY/WX    TMP DP  RH WIND       PRES   REMARKS
TWIN CITIES    CLEAR     68  56  65 SW12      30.01S
ST PAUL        CLEAR     68  55  63 CALM      30.00S
CRYSTAL        CLEAR     71  56  58 W9        29.99S
BLAINE         CLEAR     70  57  64 W7        30.00S
LAKEVILLE      CLEAR     63  55  77 W3        30.03S
EDEN PRAIRIE   CLEAR     65  56  72 SW8       30.01S
SOUTH ST PAUL  CLEAR     67  55  65 SW7       30.00S
LAKE ELMO      FAIR      66  55  68 W6        30.00F
$$
MNZ001>005-007-008-013>017-022>024-027-028-300800-
   Northwest Minnesota

CITY           SKY/WX    TMP DP  RH WIND       PRES   REMARKS
BEMIDJI        CLEAR     63  56  80 W9        29.93S
HALLOCK        CLEAR     59  57  94 W5        29.90R
ROSEAU         CLEAR     61  54  77 W5        29.89S
WARROAD        CLEAR     59  55  88 W7        29.89R
THIEF RVR FALL CLEAR     63  55  77 W8        29.93R
CROOKSTON      CLEAR     63  57  82 W8        29.94S
FOSSTON        CLEAR     57  54  88 CALM      29.95S
DETROIT LAKES  CLEAR     68  55  64 W8        29.99S
MOORHEAD       CLEAR     61  57  88 W6        29.98S
PARK RAPIDS    PTCLDY    62  56  80 W8        29.97R
MAHNOMEN       FAIR      62  57  83 W7        29.96S
$$
MNZ006-009>011-018-025>026-300800-
   North Central Minnesota

CITY           SKY/WX    TMP DP  RH WIND       PRES   REMARKS
BAUDETTE       CLEAR     61  53  75 W7        29.87R
FLAG ISLAND    CLEAR     63  57  82 W9        29.84R
INTL FALLS     CLEAR     60  54  80 W7        29.83R
WASKISH        CLEAR     68  57  68 W15       29.89S
BIG FORK       CLEAR     61  55  82 SW6       29.89S
LONGVILLE      CLEAR     63  55  77 W5        29.93S
GRAND RAPIDS   CLEAR     66  54  63 W10G17    29.91S
CRANE LAKE     CLEAR     63  54  72 W5        29.83R
ORR            CLEAR     61  48  63 W6        29.83R
COOK           CLEAR     63  52  67 W8        29.86R
WALKER         FAIR      64  56  74 W8        29.94R
$$
MNZ012-019>021-037-300800-
   Northeast Minnesota

CITY           SKY/WX    TMP DP  RH WIND       PRES   REMARKS
DULUTH         CLEAR     62  54  74 W12       29.88S
ELY            PTCLDY    63  52  67 W10G17    29.82R
HIBBING        CLEAR     63  53  70 W6        29.88R
EVELETH        CLEAR     59  52  77 W6        29.88R
DULUTH HARBOR  CLEAR     66  57  72 SW12      29.88R
TWO HARBORS    CLEAR     68  55  64 W8        29.83S
SILVER BAY     PTCLDY    66  52  59 W6        29.80S
GRAND MARAIS     N/A     51  46  83 W9        29.72S
G MARAIS ARPRT PTCLDY    63  50  63 W12G18    29.76F
$$
MNZ029>031-032-039>041-046>048-054>057-064-300800-
   West Central Minnesota

CITY           SKY/WX    TMP DP  RH WIND       PRES   REMARKS
FERGUS FALLS   CLEAR     61  55  82 CALM      30.00S
WHEATON        CLEAR     63  52  67 W8        30.04S
MORRIS         CLEAR     61  55  82 W6        30.02S
ALEXANDRIA     CLEAR     63  55  75 W7        30.03S
ELBOW LAKE     FAIR      59  55  85 SW8       30.02R
WADENA         CLEAR     61  55  82 W5        29.98S
GLENWOOD       CLEAR     61  57  88 SW7       30.03F
APPLETON       CLEAR     61  54  77 W3        30.04R
BENSON         CLEAR     61  54  77 W5        30.03S
ORTONVILLE     CLEAR     64  50  59 W7        30.05R
MADISON        CLEAR     61  52  72 W5        30.05S
WILLMAR        FAIR      61  55  82 CALM      30.05S
$$
MNZ033>034-036-042>043-049>051-058-059-300800-
   Central Minnesota

CITY           SKY/WX    TMP DP  RH WIND       PRES   REMARKS
ST CLOUD       CLEAR     66  55  67 W9        29.99S
SAUK CENTRE    FAIR      61  56  82 W7        30.02S
PAYNESVILLE    CLEAR     58  55  89 SW6       30.03S
AITKIN         CLEAR     66  55  68 SW5       29.93S
PINE RIVER     CLEAR     64  55  72 W6        29.99R
BRAINERD       CLEAR     67  56  67 W12       29.96S
STAPLES        CLEAR     63  54  72 W6        29.98S
LONG PRAIRIE   FAIR      61  54  77 SW7       30.02R
LITTLE FALLS   CLEAR     64  54  68 W3        29.99S
LITCHFIELD     CLEAR     66  55  68 W5        30.04S
BUFFALO        CLEAR     65  56  72 SW5       30.02S
MAPLE LAKE     CLEAR     66  59  77 W3        30.02S
$$
MNZ037-044-045-052-053-300800-
   East Central Minnesota

CITY           SKY/WX    TMP DP  RH WIND       PRES   REMARKS
PRINCETON      CLEAR     66  57  72 SW6       29.99S
MORA           CLEAR     64  55  72 W8        29.98S
CAMBRIDGE      CLEAR     72  55  56 W5        29.96S
RUSH CITY      PTCLDY    67  56  68 W8        29.96S
MOOSE LAKE     CLEAR     64  54  68 W6        29.91S
HINCKLEY       FAIR      61  55  82 SW8       29.95S
CLOQUET        CLEAR     64  54  68 W8        29.90S
MCGREGOR       CLEAR     64  55  72 W8        29.94R
$$
MNZ071>073-080-081-089-090-097-098-300800-
   Southwest Minnesota

CITY           SKY/WX    TMP DP  RH WIND       PRES   REMARKS
MONTEVIDEO     CLEAR     61  52  72 W5        30.07R
GRANITE FALLS  CLEAR     59  55  87 SW6       30.08R
CANBY          CLEAR     65  52  64 SW10      30.08S
MARSHALL       CLEAR     63  52  67 SW9       30.09S
REDWOOD FALLS  CLEAR     67  54  63 W8        30.06R
OLIVIA         CLEAR     55  52  88 SW5       30.05R
PIPESTONE      CLEAR     59  55  88 CALM      30.13S
WINDOM         CLEAR     61  55  82 CALM      30.11S
WORTHINGTON    CLEAR     61  54  77 SW7       30.13R
JACKSON        CLEAR     63  55  77 W3        30.12S
TRACY          CLEAR     63  57  82 SW7       30.10S
SLAYTON        CLEAR     65  55  68 CALM      30.13S
$$
MNZ065>067-074>077-082>085-091>093-300800-
   South Central Minnesota

CITY           SKY/WX    TMP DP  RH WIND       PRES   REMARKS
MANKATO        CLEAR     63  54  72 W8        30.06S
NEW ULM        CLEAR     57  55  94 SW6       30.06S
ST JAMES       CLEAR     63  59  88 SW7       30.09S
FAIRMONT       CLEAR     64  54  68 W9        30.09S
GLENCOE        CLEAR     63  57  79 SW6       30.03S
FARIBAULT      CLEAR     63  57  82 SW6       30.05S
OWATONNA       CLEAR     63  55  77 SW8       30.06S
WASECA         CLEAR     55  54  94 SW3       30.08S
ALBERT LEA     CLEAR     64  57  77 SW5       30.08S
$$
MNZ078>079-086>088-094>096-300800-
   Southeast Minnesota

CITY           SKY/WX    TMP DP  RH WIND       PRES   REMARKS
ROCHESTER      CLEAR     62  56  80 W10       30.07S
RED WING       CLEAR     64  55  72 W3        30.00S
STANTON        CLEAR     66  56  70 W3        30.02S
DODGE CENTER   PTCLDY    61  55  82 W7        30.06F
WINONA         CLEAR     64  55  72 CALM      30.02S
AUSTIN         CLEAR     63  57  82 W3        30.08S
PRESTON        CLEAR     63  55  76 W9        30.07S
$$
ABBREVIATIONS USED IN REMARKS
   TC - TEMPERATURES IN CELSIUS
  WCI - WIND CHILL INDEX
   HX - HEAT INDEX
  VSB - VISIBILITY
$$


USA.gov is the U.S. government's official web portal to all federal, state and local government web resources and services.